Location: Nianha
(10.8000°N, 4.6333°W)
Time: 16:02:07
(UTC+00:00)

Cosmos 1455 - Pass Details

Date: 14 November 2019
Orbit: 500 x 523 km, 82.5° (Epoch: 27 January)

Event Time Altitude Azimuth Distance (km) Brightness Sun altitude
Exits shadow 05:06:46 18° 230° (SW) 1,314 3.9 -16.5°
Drops below altitude 10° 05:08:10 10° 213° (SSW) 1,724 4.7 -16.2°
Sets 05:10:36 0° 199° (SSW) 2,614 5.8 -15.6°
